Dewpoint
57 57 57 57 57 57 57 57 57 57 57 58 58 59 59 58 58 59 60 60 60 60 61 61 61 60 60 61 61 60 52 35 31 32 33 33 45 57 57 59 60 61 61 33 16 23 13 14 14 16 17 19 19 20 23 19 29 28 20 18 13 17 14 17 10 12 11 13 14 15 13 8 7 11 14 17 15 17 18 18 18 18 18 18 18 20 22 27
57 58 58 57 57 57 57 57 58 57 58 58 58 59 59 59 58 59 60 60 60 61 61 60 59 60 61 60 60 58 44 38 28 27 30 42 51 57 59 59 60 62 49 24 17 13 12 12 15 15 16 14 21 18 20 18 29 25 22 15 14 16 17 18 13 13 13 12 15 15 13 9 7 14 15 13 11 15 14 14 17 16 16 16 17 17 25 28
57 58 58 57 57 57 57 58 58 58 58 58 58 58 58 59 59 59 60 60 60 60 60 59 59 58 60 60 59 59 46 40 34 23 25 49 56 58 59 60 61 56 31 26 29 15 13 13 17 12 13 11 13 16 15 14 23 25 20 15 17 19 15 15 14 15 14 15 15 13 13 11 12 14 18 17 15 15 15 14 13 15 14 14 15 21 28 30
58 58 57 57 57 57 57 58 58 58 58 57 58 58 58 59 59 60 60 60 60 60 59 59 58 59 58 59 59 49 41 37 28 26 27 53 57 58 58 59 59 51 38 35 29 21 21 20 17 12 14 10 16 13 10 11 7 13 18 15 17 18 13 14 15 16 17 15 15 13 15 12 13 16 18 18 12 11 11 15 13 11 13 15 18 24 27 29
58 57 57 57 57 57 57 58 57 58 58 58 58 58 58 58 59 60 60 60 60 60 59 59 61 59 59 59 56 36 37 19 19 30 30 56 58 57 57 58 58 38 36 34 28 29 23 25 25 19 12 8 17 8 7 11 15 15 12 16 16 16 13 15 17 20 16 15 13 13 11 11 16 17 17 16 14 8 7 10 12 13 12 14 17 20 27 27
57 57 57 57 58 57 58 58 57 57 57 58 58 58 58 59 59 60 61 60 61 61 60 60 60 60 59 57 45 38 20 1 25 29 52 55 57 56 55 54 53 34 36 35 30 28 16 15 16 18 14 6 7 3 2 12 15 4 6 15 16 15 12 14 18 20 13 12 13 12 13 16 15 15 16 16 16 15 14 13 12 13 15 16 22 26 25 26
57 57 58 58 57 58 58 57 57 57 57 58 57 57 58 59 60 60 60 60 61 60 60 60 60 60 59 56 42 39 34 23 29 32 55 56 55 53 52 53 51 36 33 29 33 26 20 14 15 19 15 12 11 15 17 16 13 6 10 14 14 17 13 17 18 20 15 11 11 13 20 15 13 11 15 14 16 17 17 13 14 15 20 20 25 27 24 25
57 57 57 57 58 57 57 57 57 57 58 58 58 58 59 59 60 60 59 59 59 60 59 60 60 59 58 40 29 28 31 23 25 37 51 54 46 44 47 38 41 41 39 30 33 29 23 18 11 19 13 4 6 12 16 9 8 12 12 16 15 16 17 18 21 20 18 17 18 19 16 15 15 14 16 14 15 15 16 17 16 16 18 20 22 26 26 26
57 57 57 57 57 57 57 57 57 58 58 58 58 58 59 58 59 59 59 59 60 59 60 60 59 58 56 44 38 26 20 28 31 40 44 43 42 40 40 34 38 36 40 39 39 32 24 21 18 11 -0 15 17 13 16 4 -4 17 14 16 16 16 17 17 16 16 20 21 21 16 15 16 17 17 17 13 12 15 19 19 17 16 15 16 17 19 24 25
56 56 57 57 57 57 57 57 57 58 58 58 58 59 60 59 58 58 58 59 59 59 59 60 59 56 45 37 36 14 21 33 42 41 43 43 39 38 40 42 36 33 30 33 36 29 24 25 21 21 17 15 16 13 15 10 1 16 15 15 14 15 16 17 13 16 16 19 22 16 15 15 19 17 10 12 14 19 17 18 17 15 15 15 17 17 18 22
56 56 56 56 57 57 57 56 56 57 58 58 58 59 59 58 57 58 58 59 58 58 58 59 58 53 39 42 30 19 28 37 41 42 43 43 38 38 39 42 42 38 36 37 36 37 33 28 29 25 20 12 18 15 15 14 13 15 15 12 10 14 16 15 15 14 16 13 19 17 17 20 20 16 13 13 16 21 18 16 17 17 16 15 17 17 20 22
56 56 56 56 56 57 57 57 57 57 57 58 58 59 58 57 58 58 59 58 58 59 58 57 54 45 39 33 30 28 38 37 43 42 43 43 40 39 43 44 41 37 29 31 36 40 35 31 31 24 13 19 11 14 14 18 16 15 11 -1 6 13 11 14 13 14 15 13 19 18 17 16 19 16 17 17 21 18 16 16 16 16 16 17 17 18 18 18
55 56 56 56 56 57 57 57 57 57 57 57 59 58 57 58 58 59 58 58 58 58 57 56 50 47 41 29 29 37 39 42 41 42 42 43 41 43 44 44 44 40 36 34 34 40 38 35 31 23 27 21 12 9 11 16 15 13 10 4 6 12 10 14 20 17 16 16 20 17 14 14 14 17 18 18 17 18 16 15 15 16 16 16 17 16 17 18
55 55 56 56 56 56 57 57 57 57 57 58 58 57 58 59 58 57 56 58 58 59 56 56 44 40 34 25 33 40 43 44 40 40 41 42 37 37 34 41 44 44 42 42 40 39 37 36 32 28 32 24 14 22 17 19 17 9 9 19 12 8 5 16 20 19 16 18 17 17 16 15 16 16 16 17 22 18 15 16 16 15 15 16 18 19 18 18
55 55 55 56 56 56 56 57 57 57 57 59 57 57 57 57 58 57 58 59 59 57 59 56 46 37 29 29 38 44 54 39 37 40 43 40 39 34 33 41 40 43 42 40 37 38 37 36 33 29 19 27 21 18 18 18 20 23 5 7 18 9 12 17 21 21 15 16 20 17 17 16 16 16 17 19 18 17 16 16 16 15 15 15 16 15 16 15
55 55 56 56 56 56 56 56 57 57 58 57 57 56 57 58 58 59 58 56 57 59 49 42 43 35 30 28 36 46 40 36 36 41 42 42 41 39 41 40 41 40 41 39 42 41 38 35 27 24 25 25 26 19 16 12 12 21 11 15 12 17 14 18 18 23 22 20 20 17 16 16 17 16 16 18 19 20 17 17 16 16 15 16 15 15 16 18
55 55 55 55 56 55 56 56 57 57 57 57 56 56 57 58 58 59 59 57 53 52 47 39 40 37 28 35 40 35 33 36 39 40 42 43 42 42 41 38 38 36 38 39 40 38 35 32 29 24 29 27 25 17 -4 9 7 11 20 10 16 14 15 15 20 21 21 20 19 19 17 17 18 17 18 19 20 19 19 19 18 17 16 16 17 16 16 17
54 55 55 55 55 55 55 56 56 57 57 56 56 55 54 55 57 54 49 51 46 47 46 46 39 26 14 36 27 29 38 39 39 41 40 42 43 43 40 38 39 37 36 31 32 31 32 24 30 18 22 25 26 17 9 -0 8 12 16 11 13 22 19 17 20 21 20 22 19 18 18 18 18 19 19 20 20 19 19 19 20 19 18 17 17 18 19 20
54 55 55 54 55 55 55 56 56 57 57 57 56 57 56 55 46 44 43 44 34 30 32 32 32 23 18 24 32 36 36 37 41 37 36 39 41 43 40 39 36 31 27 30 25 31 31 24 24 17 10 22 24 20 12 12 21 19 19 15 17 14 18 20 23 23 22 22 21 20 20 19 20 20 21 21 22 20 20 19 20 21 21 19 19 20 21 23
54 54 54 54 55 55 55 56 56 57 57 49 39 37 38 31 37 32 37 41 36 37 37 37 38 36 34 33 34 37 39 43 34 34 38 39 42 40 33 36 34 35 30 21 27 31 30 19 13 11 14 22 24 25 24 25 25 24 24 23 22 22 23 25 24 23 23 21 21 21 20 20 21 21 21 22 22 21 21 20 21 21 22 23 22 21 22 24
54 54 53 54 54 55 55 56 56 57 56 44 41 30 24 33 32 27 31 35 37 38 38 37 35 31 31 33 36 40 39 40 33 32 35 43 43 34 28 30 31 27 29 30 26 30 28 19 18 20 21 22 25 25 26 26 25 24 24 23 22 23 20 23 21 23 25 20 20 23 23 21 21 22 22 23 20 19 20 20 19 19 19 19 21 22 22 23
54 53 54 54 55 55 55 55 56 56 54 44 36 27 28 38 37 34 33 25 32 36 38 38 39 35 38 38 39 40 36 30 29 33 39 39 38 27 29 31 28 22 29 29 26 23 21 18 23 23 25 26 26 27 26 25 24 24 24 23 22 21 24 24 22 23 25 21 19 23 22 21 21 21 22 24 23 20 21 21 20 20 20 21 20 20 22 25
54 54 54 54 54 54 55 55 56 55 45 34 36 39 38 42 42 41 36 30 26 31 31 34 30 33 35 37 40 41 29 26 24 33 35 39 35 35 32 30 28 28 28 28 21 18 15 18 23 27 26 26 25 25 24 23 25 24 23 21 19 22 18 18 21 24 25 23 20 23 22 21 21 22 23 24 23 20 22 24 25 23 20 20 20 23 25 26
53 53 54 54 55 55 53 56 53 43 43 40 40 36 41 41 40 41 33 24 25 28 32 33 34 35 32 32 35 34 29 28 30 33 37 38 34 33 32 29 26 26 24 25 25 20 16 24 28 27 26 26 24 24 25 24 22 23 23 20 20 20 19 17 19 23 25 24 24 21 17 18 19 18 18 19 24 24 22 24 23 26 25 24 28 29 29 26
53 53 54 54 55 55 56 52 44 40 41 36 36 40 41 41 40 39 32 27 26 27 37 38 36 36 35 38 39 34 33 32 31 34 36 38 36 30 30 31 27 23 24 25 26 25 23 25 28 27 26 26 24 20 22 22 20 21 22 22 20 19 20 21 24 21 21 18 21 17 10 16 22 20 21 21 24 22 22 20 17 20 26 26 26 26 29 31
53 53 54 54 55 56 54 40 38 42 36 34 34 40 41 40 40 38 27 18 14 23 31 26 37 27 36 31 37 33 31 29 32 34 43 38 41 30 31 28 27 22 24 23 23 22 22 26 28 26 26 26 24 23 23 21 19 18 20 23 22 21 22 23 23 18 15 10 14 17 8 7 20 16 18 21 23 21 22 19 22 26 28 26 27 27 27 28
52 53 53 54 55 54 35 33 36 36 29 28 41 41 39 40 40 33 18 17 11 17 24 29 30 28 37 36 35 32 20 22 35 35 36 39 36 39 28 25 26 25 25 23 20 20 26 26 25 23 25 24 24 23 25 22 20 17 24 24 24 24 23 23 21 16 17 19 18 17 13 9 13 18 21 23 19 18 18 17 19 22 23 25 27 27 28 28
51 52 52 54 53 49 28 37 37 34 27 38 41 39 40 41 42 26 22 -3 -5 27 25 27 30 37 36 37 34 28 26 32 23 25 37 37 40 33 31 26 25 25 25 23 13 21 26 25 26 24 22 21 19 21 24 24 20 20 25 25 24 24 24 23 20 21 22 14 17 18 16 12 14 20 20 18 16 16 17 17 18 20 22 24 24 28 29 29
52 52 52 53 52 50 40 37 36 30 39 39 38 39 40 35 25 16 8 -5 1 25 31 27 37 30 34 33 29 31 32 31 25 30 35 37 36 32 27 27 28 27 27 25 18 24 24 25 25 26 21 19 22 24 25 25 21 25 25 26 25 24 24 24 22 20 19 11 11 14 14 8 15 21 18 16 17 17 18 18 20 20 22 23 24 25 27 29
52 51 51 53 43 35 34 33 39 40 40 39 40 40 36 27 24 19 4 -5 21 12 29 30 34 32 30 24 24 30 27 28 31 32 31 29 30 36 32 32 27 26 24 28 26 24 26 32 31 24 22 22 24 26 25 26 27 26 26 25 25 23 21 20 19 19 13 6 16 15 17 11 10 19 18 16 19 20 18 19 20 22 23 24 25 26 28 27
52 51 49 48 31 30 29 23 30 40 39 42 41 35 26 24 22 12 -0 9 22 19 27 29 28 32 27 22 22 27 28 27 29 28 24 30 27 30 29 23 30 24 25 25 26 26 29 27 24 24 31 26 27 27 26 26 26 26 25 24 19 22 18 15 8 12 7 8 12 17 17 17 6 13 16 19 20 21 18 18 18 20 22 24 25 27 29 30
51 50 48 45 43 39 32 24 35 41 41 41 36 31 25 8 9 -0 -1 24 10 18 19 22 27 26 26 24 25 26 24 25 27 28 23 25 25 25 26 22 22 13 15 15 16 23 25 26 28 25 32 27 26 26 25 26 25 25 23 22 12 14 9 7 10 8 6 9 16 17 17 12 13 15 15 15 16 18 20 18 19 20 21 23 25 28 28 30
51 48 47 45 43 35 37 37 40 41 42 39 33 28 20 16 -3 15 8 12 6 19 18 27 25 27 27 20 20 25 27 23 27 28 26 25 25 23 25 23 23 19 10 14 19 20 19 26 26 28 28 31 26 22 19 19 21 22 18 16 13 4 -1 -2 -2 0 6 13 17 15 16 12 15 15 18 16 16 18 20 21 22 22 21 23 25 27 28 30
50 45 38 43 41 39 40 40 39 43 40 38 22 16 17 2 2 25 11 14 9 21 27 28 27 22 22 20 24 26 20 24 25 25 23 20 24 18 22 25 25 22 21 20 17 16 8 14 18 24 22 25 26 21 20 19 22 22 22 19 15 10 4 2 -2 1 1 7 11 15 8 15 10 11 19 18 17 19 21 20 21 23 24 24 26 28 28 29
48 43 40 38 38 40 39 38 42 44 38 32 26 22 9 14 14 11 14 15 17 25 23 24 23 20 19 22 22 26 22 20 24 19 22 20 17 20 22 21 23 24 22 15 15 12 12 16 19 25 25 26 24 25 25 24 23 24 23 23 17 10 17 6 7 5 6 10 14 11 13 17 16 19 23 23 21 21 21 22 24 24 25 26 26 28 30 31
48 38 39 35 38 37 38 40 41 38 32 29 23 10 10 17 11 15 18 22 22 21 23 21 22 17 17 20 20 24 26 18 21 17 16 21 21 20 23 24 22 24 20 14 18 10 13 10 24 26 23 24 24 25 23 24 14 19 20 14 16 20 20 11 10 9 10 11 13 10 16 19 21 18 21 21 18 19 19 21 21 23 24 25 25 29 30 32
37 35 25 32 30 35 37 39 41 35 28 27 23 9 19 17 16 21 34 21 21 25 20 13 14 15 11 15 20 22 20 21 18 18 15 20 17 19 22 22 24 25 24 22 18 17 13 15 20 22 19 25 26 25 25 25 24 20 15 20 23 24 22 16 10 6 4 6 13 12 13 15 14 17 23 17 17 18 18 20 20 21 22 24 26 29 32 32
36 36 34 32 34 37 36 36 35 31 31 25 8 30 19 16 21 27 29 27 27 25 22 16 11 20 14 15 15 23 22 17 22 15 12 16 13 23 22 20 24 26 25 25 17 16 16 13 16 24 22 25 25 25 22 27 26 24 19 20 18 10 13 14 11 6 5 4 6 13 16 17 16 17 19 17 16 17 18 19 19 19 21 24 26 29 31 31
32 28 19 26 39 39 36 36 34 31 24 9 7 11 20 18 24 30 30 31 30 23 19 19 13 16 16 16 19 23 21 18 19 17 12 15 15 21 21 23 22 25 23 24 17 18 15 6 16 20 23 24 23 20 15 20 21 21 25 21 18 20 11 11 11 12 10 6 2 13 11 11 18 19 20 18 18 17 17 18 18 19 21 23 26 29 31 31
27 18 19 33 37 37 36 38 31 25 20 10 18 14 20 18 23 27 29 31 28 22 23 21 21 17 17 18 23 21 23 19 19 20 14 15 20 23 24 26 21 22 23 23 19 21 16 13 2 12 20 20 18 20 19 20 18 19 19 18 17 14 19 16 12 12 11 3 3 2 10 14 19 20 20 18 17 17 17 18 20 20 21 24 27 30 31 31
30 28 27 33 39 36 35 29 24 15 12 14 18 16 17 16 25 28 27 27 30 28 26 26 24 20 20 18 19 23 23 22 21 20 18 18 19 15 23 24 23 20 23 19 20 19 14 12 9 18 17 18 20 22 22 21 21 19 20 19 20 18 13 9 15 9 7 9 6 2 11 16 19 24 21 20 19 18 19 19 20 21 22 24 27 29 30 31
22 5 17 29 37 34 28 16 18 14 16 17 13 18 25 35 23 25 25 25 28 25 26 26 26 22 20 20 22 22 21 21 20 19 20 18 22 21 24 23 24 23 19 18 18 22 16 16 14 10 16 15 20 23 24 21 20 17 20 19 21 19 18 10 6 10 9 9 7 8 5 15 21 24 25 22 22 20 19 20 20 21 23 24 26 28 29 30
19 19 23 37 37 30 25 9 24 24 17 17 22 26 26 24 22 24 24 24 23 26 25 24 25 23 22 21 20 20 21 20 22 21 21 19 19 24 24 24 25 24 25 21 19 19 28 12 8 16 15 19 17 21 22 22 20 20 19 20 19 18 20 19 14 13 12 9 9 7 6 14 21 24 25 25 25 25 24 21 21 22 23 25 25 26 27 28
22 22 23 31 33 32 18 7 6 10 14 17 23 24 26 24 24 20 21 22 24 22 24 25 25 26 22 24 22 20 22 17 22 22 20 22 22 25 23 24 22 23 19 20 21 23 9 16 16 4 11 11 14 17 14 15 16 18 19 20 20 20 18 19 16 12 10 13 15 14 7 11 21 24 22 22 22 23 24 25 23 23 24 25 25 27 27 28
20 23 25 29 29 23 18 21 19 15 23 18 16 16 21 21 23 24 23 22 27 24 26 25 26 25 22 20 17 18 18 16 14 17 24 23 22 25 22 23 25 24 27 29 31 28 15 14 12 5 0 -2 -4 -4 -1 6 16 20 18 21 20 19 18 16 12 9 10 12 13 5 9 13 17 20 20 20 21 21 22 23 24 24 23 23 26 28 28 29
17 -5 17 16 19 25 25 25 23 21 18 14 10 14 20 18 25 25 25 24 27 26 24 26 25 24 22 20 18 17 18 17 15 15 22 22 24 25 25 23 24 27 30 31 31 21 11 15 13 16 15 12 12 17 14 23 16 13 15 19 19 20 20 19 17 11 16 11 14 15 13 13 15 16 18 20 21 21 21 22 22 23 24 26 26 27 28 30
19 5 12 1 12 17 18 21 19 18 13 20 6 14 13 19 20 19 22 20 24 24 20 24 25 21 20 20 18 16 16 16 16 16 18 22 24 25 23 23 24 29 34 32 28 16 10 12 15 14 14 17 15 13 18 24 17 16 15 16 19 19 20 18 18 17 19 14 14 16 17 14 14 14 17 19 20 22 22 21 22 23 24 25 26 27 32 28
12 14 13 10 4 4 9 7 23 19 19 12 7 17 14 20 20 16 22 23 22 20 20 19 24 24 23 22 21 16 15 14 12 15 21 22 21 22 21 23 22 27 28 22 25 19 15 10 14 15 15 16 17 17 20 21 20 18 16 16 19 19 19 19 19 20 15 16 15 15 16 16 15 15 17 19 20 20 20 21 23 23 23 23 24 26 28 29
16 17 19 20 15 15 17 17 24 22 21 20 25 18 14 18 18 20 19 21 20 21 22 16 18 25 25 24 19 17 16 13 15 13 16 17 20 19 19 20 22 22 20 17 16 13 16 11 12 14 15 16 16 16 19 19 19 19 20 19 19 19 19 20 20 20 18 18 20 19 17 17 17 16 17 18 20 21 21 22 23 23 22 23 24 24 27 29
11 12 3 20 23 20 23 22 23 20 14 22 12 15 18 20 18 20 21 18 16 18 23 19 20 22 24 24 21 20 21 22 17 15 16 20 17 21 20 22 20 22 20 16 15 14 15 13 22 10 11 13 12 15 16 18 18 16 17 17 18 19 19 20 20 19 19 20 20 20 20 19 19 19 20 20 20 22 22 21 21 22 23 24 25 25 27 29
25 24 23 16 11 17 21 20 19 19 13 13 10 12 20 20 20 22 19 23 19 18 21 21 23 23 24 24 23 23 25 22 24 24 23 23 17 23 18 16 23 20 18 16 15 12 13 11 10 8 8 10 9 11 13 12 15 16 16 16 16 18 18 19 19 20 18 18 18 16 17 16 17 22 21 21 20 20 19 19 20 21 23 25 25 25 27 29
26 28 26 22 4 20 19 19 17 9 4 19 17 17 17 19 22 20 16 22 24 23 24 23 23 24 23 22 24 25 26 25 26 26 25 24 25 25 24 23 23 22 20 17 17 15 14 12 11 8 7 7 8 10 11 10 11 12 13 14 15 16 17 18 19 21 21 19 16 16 14 15 15 22 19 19 21 21 21 21 21 22 25 25 25 25 28 29